Time,TemperatureF,DewpointF,PressureIn,WindDirection,WindDirectionDegrees,WindSpeedMPH,WindSpeedGustMPH,Humidity,HourlyPrecipIn,Conditions,Clouds,dailyrainin,SoftwareType,DateUTC
2013-05-25 00:02:00,56.1,25.1,29.71,South,178,3.1,3.1,30,0.00,,---,0.00,VWS V14.00,2013-05-25 07:02:00,
2013-05-25 00:08:00,55.9,25.0,29.71,SSE,149,8.7,8.7,30,0.00,,---,0.00,VWS V14.00,2013-05-25 07:08:00,
2013-05-25 00:14:00,55.8,25.6,29.71,ESE,114,5.4,5.4,31,0.00,,---,0.00,VWS V14.00,2013-05-25 07:14:00,
2013-05-25 00:19:00,55.6,25.5,29.71,SE,130,8.7,8.7,31,0.00,,---,0.00,VWS V14.00,2013-05-25 07:19:00,
2013-05-25 00:25:00,55.2,25.9,29.71,SSE,165,5.8,5.8,32,0.00,,---,0.00,VWS V14.00,2013-05-25 07:25:00,
2013-05-25 00:31:00,55.2,25.9,29.71,SSW,199,3.1,4.0,32,0.00,,---,0.00,VWS V14.00,2013-05-25 07:31:00,
2013-05-25 00:36:00,55.2,25.9,29.71,South,171,4.0,4.0,32,0.00,,---,0.00,VWS V14.00,2013-05-25 07:36:00,
2013-05-25 00:41:00,55.0,26.5,29.71,ESE,115,6.3,6.3,33,0.00,,---,0.00,VWS V14.00,2013-05-25 07:41:00,
2013-05-25 00:47:00,55.0,26.5,29.71,South,175,3.1,4.0,33,0.00,,---,0.00,VWS V14.00,2013-05-25 07:47:00,
2013-05-25 00:53:00,55.0,26.5,29.71,SSE,150,3.1,3.1,33,0.00,,---,0.00,VWS V14.00,2013-05-25 07:53:00,
2013-05-25 00:58:00,54.9,26.3,29.71,SE,142,3.1,3.1,33,0.00,,---,0.00,VWS V14.00,2013-05-25 07:58:00,
2013-05-25 01:04:00,54.7,26.2,29.71,SSE,156,2.7,3.6,33,0.00,,---,0.00,VWS V14.00,2013-05-25 08:04:00,
2013-05-25 01:09:00,54.5,26.0,29.71,SSE,167,2.2,2.7,33,0.00,,---,0.00,VWS V14.00,2013-05-25 08:09:00,
2013-05-25 01:14:00,54.5,26.0,29.71,SE,137,2.2,4.0,33,0.00,,---,0.00,VWS V14.00,2013-05-25 08:14:00,
2013-05-25 01:20:00,54.3,26.6,29.71,South,191,2.2,4.9,34,0.00,,---,0.00,VWS V14.00,2013-05-25 08:20:00,
2013-05-25 01:25:00,54.1,26.4,29.71,ESE,120,2.7,4.0,34,0.00,,---,0.00,VWS V14.00,2013-05-25 08:25:00,
2013-05-25 01:31:00,54.1,26.4,29.71,SSE,151,4.0,4.0,34,0.00,,---,0.00,VWS V14.00,2013-05-25 08:31:00,
2013-05-25 01:36:00,53.8,26.1,29.71,SSE,152,4.0,4.0,34,0.00,,---,0.00,VWS V14.00,2013-05-25 08:36:00,
2013-05-25 01:41:00,53.6,26.6,29.71,South,169,3.1,3.1,35,0.00,,---,0.00,VWS V14.00,2013-05-25 08:41:00,
2013-05-25 01:46:00,53.6,26.6,29.71,SSE,157,3.6,3.6,35,0.00,,---,0.00,VWS V14.00,2013-05-25 08:46:00,
2013-05-25 01:52:00,53.8,26.8,29.71,South,181,3.1,6.3,35,0.00,,---,0.00,VWS V14.00,2013-05-25 08:52:00,
2013-05-25 01:57:00,53.8,26.8,29.71,SSE,168,0.0,0.0,35,0.00,,---,0.00,VWS V14.00,2013-05-25 08:57:00,
2013-05-25 02:02:00,53.6,26.6,29.71,SSE,148,2.7,2.7,35,0.00,,---,0.00,VWS V14.00,2013-05-25 09:02:00,
2013-05-25 02:07:00,53.4,27.1,29.71,SSE,166,2.7,2.7,36,0.00,,---,0.00,VWS V14.00,2013-05-25 09:07:00,
2013-05-25 02:13:00,53.1,26.8,29.71,South,172,3.6,3.6,36,0.00,,---,0.00,VWS V14.00,2013-05-25 09:13:00,
2013-05-25 02:18:00,53.1,26.8,29.71,SSE,168,3.6,3.6,36,0.00,,---,0.00,VWS V14.00,2013-05-25 09:18:00,
2013-05-25 02:23:00,52.7,26.5,29.71,SSE,157,3.1,3.1,36,0.00,,---,0.00,VWS V14.00,2013-05-25 09:23:00,
2013-05-25 02:29:00,52.5,26.4,29.71,SE,129,2.7,2.7,36,0.00,,---,0.00,VWS V14.00,2013-05-25 09:29:00,
2013-05-25 02:34:00,52.5,26.4,29.71,South,179,3.1,3.1,36,0.00,,---,0.00,VWS V14.00,2013-05-25 09:34:00,
2013-05-25 02:39:00,52.5,26.4,29.71,ESE,105,0.0,2.2,36,0.00,,---,0.00,VWS V14.00,2013-05-25 09:39:00,
2013-05-25 02:44:00,52.3,26.2,29.71,SE,139,0.0,0.0,36,0.00,,---,0.00,VWS V14.00,2013-05-25 09:44:00,
2013-05-25 02:50:00,52.3,26.2,29.71,SSE,151,3.6,5.4,36,0.00,,---,0.00,VWS V14.00,2013-05-25 09:50:00,
2013-05-25 02:56:00,52.3,26.2,29.71,SE,144,5.4,5.8,36,0.00,,---,0.00,VWS V14.00,2013-05-25 09:56:00,
2013-05-25 03:02:00,52.2,26.7,29.71,SE,139,3.1,3.1,37,0.00,,---,0.00,VWS V14.00,2013-05-25 10:02:00,
2013-05-25 03:08:00,52.2,26.7,29.71,SE,146,3.1,3.1,37,0.00,,---,0.00,VWS V14.00,2013-05-25 10:08:00,
2013-05-25 03:13:00,52.0,26.5,29.71,SSE,167,2.7,2.7,37,0.00,,---,0.00,VWS V14.00,2013-05-25 10:13:00,
2013-05-25 03:19:00,51.8,26.4,29.71,SE,128,2.7,4.9,37,0.00,,---,0.00,VWS V14.00,2013-05-25 10:19:00,
2013-05-25 03:24:00,51.8,26.4,29.71,SE,129,3.6,3.6,37,0.00,,---,0.00,VWS V14.00,2013-05-25 10:24:00,
2013-05-25 03:29:00,51.6,26.2,29.71,SSE,168,4.0,6.3,37,0.00,,---,0.00,VWS V14.00,2013-05-25 10:29:00,
2013-05-25 03:34:00,51.6,26.9,29.71,SE,146,3.1,4.0,38,0.00,,---,0.00,VWS V14.00,2013-05-25 10:34:00,
2013-05-25 03:40:00,51.6,26.9,29.71,SSE,157,0.0,4.9,38,0.00,,---,0.00,VWS V14.00,2013-05-25 10:40:00,
2013-05-25 03:45:00,51.6,26.9,29.71,SE,134,2.7,3.6,38,0.00,,---,0.00,VWS V14.00,2013-05-25 10:45:00,
2013-05-25 03:50:00,51.6,26.9,29.71,SE,137,4.0,4.0,38,0.00,,---,0.00,VWS V14.00,2013-05-25 10:50:00,
2013-05-25 03:56:00,51.6,26.9,29.71,ESE,119,3.1,3.1,38,0.00,,---,0.00,VWS V14.00,2013-05-25 10:56:00,
2013-05-25 04:02:00,51.3,26.5,29.71,SE,130,4.5,4.5,38,0.00,,---,0.00,VWS V14.00,2013-05-25 11:02:00,
2013-05-25 04:07:00,50.9,26.2,29.71,SE,146,2.7,2.7,38,0.00,,---,0.00,VWS V14.00,2013-05-25 11:07:00,
2013-05-25 04:13:00,50.7,26.0,29.71,ESE,116,2.7,2.7,38,0.00,,---,0.00,VWS V14.00,2013-05-25 11:13:00,
2013-05-25 04:19:00,50.4,26.4,29.71,ESE,104,2.7,2.7,39,0.00,,---,0.00,VWS V14.00,2013-05-25 11:19:00,
2013-05-25 04:24:00,50.4,26.4,29.71,SSE,152,4.9,4.9,39,0.00,,---,0.00,VWS V14.00,2013-05-25 11:24:00,
2013-05-25 04:29:00,50.2,26.2,29.71,ESE,107,2.7,2.7,39,0.00,,---,0.00,VWS V14.00,2013-05-25 11:29:00,
2013-05-25 04:35:00,50.2,26.8,29.71,SE,130,3.6,3.6,40,0.00,,---,0.00,VWS V14.00,2013-05-25 11:35:00,
2013-05-25 04:41:00,50.2,26.2,29.71,SE,141,3.1,3.1,39,0.00,,---,0.00,VWS V14.00,2013-05-25 11:41:00,
2013-05-25 04:46:00,50.0,26.0,29.71,East,100,2.2,2.2,39,0.00,,---,0.00,VWS V14.00,2013-05-25 11:46:00,
2013-05-25 04:51:00,50.0,26.0,29.71,SSE,164,2.7,2.7,39,0.00,,---,0.00,VWS V14.00,2013-05-25 11:51:00,
2013-05-25 04:56:00,49.8,26.5,29.71,ESE,114,3.6,3.6,40,0.00,,---,0.00,VWS V14.00,2013-05-25 11:56:00,
2013-05-25 05:02:00,49.8,26.5,29.71,SSE,157,3.1,3.1,40,0.00,,---,0.00,VWS V14.00,2013-05-25 12:02:00,
2013-05-25 05:07:00,49.6,26.3,29.71,SSE,147,0.0,0.0,40,0.00,,---,0.00,VWS V14.00,2013-05-25 12:07:00,
2013-05-25 05:12:00,49.5,26.2,29.71,SE,137,3.1,3.1,40,0.00,,---,0.00,VWS V14.00,2013-05-25 12:12:00,
2013-05-25 05:17:00,49.5,26.2,29.71,ESE,122,2.7,2.7,40,0.00,,---,0.00,VWS V14.00,2013-05-25 12:17:00,
2013-05-25 05:23:00,49.3,26.0,29.71,ESE,117,2.2,3.1,40,0.00,,---,0.00,VWS V14.00,2013-05-25 12:23:00,
2013-05-25 05:29:00,49.1,26.4,29.71,SSE,163,0.0,0.0,41,0.00,,---,0.00,VWS V14.00,2013-05-25 12:29:00,
2013-05-25 05:34:00,48.9,26.3,29.74,ESE,110,4.0,4.0,41,0.00,,---,0.00,VWS V14.00,2013-05-25 12:34:00,
2013-05-25 05:39:00,48.9,26.9,29.74,SSE,153,0.0,3.6,42,0.00,,---,0.00,VWS V14.00,2013-05-25 12:39:00,
2013-05-25 05:44:00,48.9,26.9,29.74,ESE,113,2.7,2.7,42,0.00,,---,0.00,VWS V14.00,2013-05-25 12:44:00,
2013-05-25 05:50:00,48.9,26.9,29.74,ESE,121,0.0,0.0,42,0.00,,---,0.00,VWS V14.00,2013-05-25 12:50:00,
2013-05-25 05:56:00,48.7,26.7,29.74,ESE,113,0.0,0.0,42,0.00,,---,0.00,VWS V14.00,2013-05-25 12:56:00,
2013-05-25 06:01:00,48.7,26.7,29.74,SE,140,2.2,2.2,42,0.00,,---,0.00,VWS V14.00,2013-05-25 13:01:00,
2013-05-25 06:06:00,48.6,26.5,29.74,SE,137,3.1,3.1,42,0.00,,---,0.00,VWS V14.00,2013-05-25 13:06:00,
2013-05-25 06:11:00,48.6,26.5,29.74,SE,145,0.0,0.0,42,0.00,,---,0.00,VWS V14.00,2013-05-25 13:11:00,
2013-05-25 06:17:00,48.7,27.3,29.74,SE,129,0.0,0.0,43,0.00,,---,0.00,VWS V14.00,2013-05-25 13:17:00,
2013-05-25 06:23:00,48.9,27.4,29.74,SE,139,0.0,0.0,43,0.00,,---,0.00,VWS V14.00,2013-05-25 13:23:00,
2013-05-25 06:29:00,49.3,27.8,29.74,SE,126,3.1,3.1,43,0.00,,---,0.00,VWS V14.00,2013-05-25 13:29:00,
2013-05-25 06:35:00,49.6,28.6,29.74,East,93,3.1,3.1,44,0.00,,---,0.00,VWS V14.00,2013-05-25 13:35:00,
2013-05-25 06:40:00,50.2,29.1,29.74,SE,145,3.1,3.6,44,0.00,,---,0.00,VWS V14.00,2013-05-25 13:40:00,
2013-05-25 06:45:00,50.7,29.6,29.74,South,174,2.7,2.7,44,0.00,,---,0.00,VWS V14.00,2013-05-25 13:45:00,
2013-05-25 06:50:00,51.4,30.3,29.74,SSE,155,3.1,4.0,44,0.00,,---,0.00,VWS V14.00,2013-05-25 13:50:00,
2013-05-25 06:56:00,51.8,30.0,29.74,South,184,2.2,2.2,43,0.00,,---,0.00,VWS V14.00,2013-05-25 13:56:00,
2013-05-25 07:02:00,52.2,29.8,29.74,South,191,3.6,3.6,42,0.00,,---,0.00,VWS V14.00,2013-05-25 14:02:00,
2013-05-25 07:08:00,52.5,30.1,29.74,ESE,115,5.4,5.4,42,0.00,,---,0.00,VWS V14.00,2013-05-25 14:08:00,
2013-05-25 07:14:00,52.7,30.3,29.74,SSE,148,7.6,7.6,42,0.00,,---,0.00,VWS V14.00,2013-05-25 14:14:00,
2013-05-25 07:20:00,53.1,30.0,29.74,SSE,163,4.0,4.9,41,0.00,,---,0.00,VWS V14.00,2013-05-25 14:20:00,
2013-05-25 07:26:00,53.2,30.2,29.74,SSE,148,4.0,4.0,41,0.00,,---,0.00,VWS V14.00,2013-05-25 14:26:00,
2013-05-25 07:32:00,53.2,30.2,29.74,South,190,3.1,3.1,41,0.00,,---,0.00,VWS V14.00,2013-05-25 14:32:00,
2013-05-25 07:38:00,53.6,29.9,29.74,South,177,5.8,6.3,40,0.00,,---,0.00,VWS V14.00,2013-05-25 14:38:00,
2013-05-25 07:44:00,53.8,30.0,29.74,SE,125,6.3,6.3,40,0.00,,---,0.00,VWS V14.00,2013-05-25 14:44:00,
2013-05-25 07:50:00,54.1,30.4,29.74,South,191,7.6,7.6,40,0.00,,---,0.00,VWS V14.00,2013-05-25 14:50:00,
2013-05-25 07:55:00,54.3,30.5,29.74,SSE,153,4.0,4.0,40,0.00,,---,0.00,VWS V14.00,2013-05-25 14:55:00,
2013-05-25 08:00:00,54.3,30.5,29.74,South,173,3.6,3.6,40,0.00,,---,0.00,VWS V14.00,2013-05-25 15:00:00,
2013-05-25 08:05:00,54.7,30.9,29.77,SE,130,3.1,6.3,40,0.00,,---,0.00,VWS V14.00,2013-05-25 15:05:00,
2013-05-25 08:11:00,55.0,30.5,29.77,SW,220,4.9,4.9,39,0.00,,---,0.00,VWS V14.00,2013-05-25 15:11:00,
2013-05-25 08:16:00,55.2,30.7,29.77,SE,145,4.9,4.9,39,0.00,,---,0.00,VWS V14.00,2013-05-25 15:16:00,
2013-05-25 08:21:00,55.6,31.0,29.77,SW,217,0.0,5.4,39,0.00,,---,0.00,VWS V14.00,2013-05-25 15:21:00,
2013-05-25 08:26:00,56.1,30.9,29.77,SSE,164,2.7,4.9,38,0.00,,---,0.00,VWS V14.00,2013-05-25 15:26:00,
2013-05-25 08:32:00,56.7,31.4,29.77,ESE,118,5.8,5.8,38,0.00,,---,0.00,VWS V14.00,2013-05-25 15:32:00,
2013-05-25 08:38:00,57.2,31.2,29.77,South,174,2.7,2.7,37,0.00,,---,0.00,VWS V14.00,2013-05-25 15:38:00,
2013-05-25 08:43:00,57.7,31.0,29.77,SSW,201,5.4,5.4,36,0.00,,---,0.00,VWS V14.00,2013-05-25 15:43:00,
2013-05-25 08:48:00,58.3,31.5,29.74,SSE,162,7.2,7.2,36,0.00,,---,0.00,VWS V14.00,2013-05-25 15:48:00,
2013-05-25 08:54:00,58.8,31.2,29.74,SSE,162,5.8,5.8,35,0.00,,---,0.00,VWS V14.00,2013-05-25 15:54:00,
2013-05-25 08:59:00,58.8,31.2,29.74,East,86,6.3,6.3,35,0.00,,---,0.00,VWS V14.00,2013-05-25 15:59:00,
2013-05-25 09:04:00,59.9,32.2,29.77,SSE,150,3.6,4.0,35,0.00,,---,0.00,VWS V14.00,2013-05-25 16:04:00,
2013-05-25 09:09:00,60.3,31.8,29.77,SE,125,7.6,7.6,34,0.00,,---,0.00,VWS V14.00,2013-05-25 16:09:00,
2013-05-25 09:15:00,60.3,31.8,29.77,SE,138,6.3,6.3,34,0.00,,---,0.00,VWS V14.00,2013-05-25 16:15:00,
2013-05-25 09:21:00,60.3,31.8,29.77,South,181,3.6,3.6,34,0.00,,---,0.00,VWS V14.00,2013-05-25 16:21:00,
2013-05-25 09:26:00,60.4,32.0,29.77,SSW,205,0.0,0.0,34,0.00,,---,0.00,VWS V14.00,2013-05-25 16:26:00,
2013-05-25 09:31:00,61.3,30.5,29.77,ESE,111,3.1,3.1,31,0.00,,---,0.00,VWS V14.00,2013-05-25 16:31:00,
2013-05-25 09:36:00,61.7,32.3,29.77,SE,138,4.0,4.0,33,0.00,,---,0.00,VWS V14.00,2013-05-25 16:36:00,
2013-05-25 09:42:00,61.9,30.9,29.77,SSW,199,3.6,3.6,31,0.00,,---,0.00,VWS V14.00,2013-05-25 16:42:00,
2013-05-25 09:47:00,62.2,30.5,29.77,South,187,3.1,5.8,30,0.00,,---,0.00,VWS V14.00,2013-05-25 16:47:00,
2013-05-25 09:53:00,62.6,31.6,29.77,SSE,157,4.9,4.9,31,0.00,,---,0.00,VWS V14.00,2013-05-25 16:53:00,
2013-05-25 09:58:00,63.0,30.2,29.77,SSW,202,3.6,8.1,29,0.00,,---,0.00,VWS V14.00,2013-05-25 16:58:00,
2013-05-25 10:03:00,63.7,30.9,29.77,SE,127,6.3,6.3,29,0.00,,---,0.00,VWS V14.00,2013-05-25 17:03:00,
2013-05-25 10:08:00,63.9,30.1,29.77,ESE,116,3.6,4.0,28,0.00,,---,0.00,VWS V14.00,2013-05-25 17:08:00,
2013-05-25 10:13:00,64.0,30.3,29.77,East,90,2.7,3.6,28,0.00,,---,0.00,VWS V14.00,2013-05-25 17:13:00,
2013-05-25 10:18:00,64.8,30.0,29.77,SW,223,4.0,4.0,27,0.00,,---,0.00,VWS V14.00,2013-05-25 17:18:00,
2013-05-25 10:24:00,65.3,30.5,29.77,South,172,3.6,3.6,27,0.00,,---,0.00,VWS V14.00,2013-05-25 17:24:00,
2013-05-25 10:30:00,65.8,31.0,29.77,SW,225,4.0,4.9,27,0.00,,---,0.00,VWS V14.00,2013-05-25 17:30:00,
2013-05-25 10:35:00,65.8,30.0,29.77,SSE,154,5.4,5.4,26,0.00,,---,0.00,VWS V14.00,2013-05-25 17:35:00,
2013-05-25 10:40:00,66.0,29.2,29.77,SSW,207,6.3,6.3,25,0.00,,---,0.00,VWS V14.00,2013-05-25 17:40:00,
2013-05-25 10:45:00,66.4,29.5,29.77,SE,137,5.8,5.8,25,0.00,,---,0.00,VWS V14.00,2013-05-25 17:45:00,
2013-05-25 10:51:00,66.6,29.7,29.77,ESE,102,5.4,8.1,25,0.00,,---,0.00,VWS V14.00,2013-05-25 17:51:00,
2013-05-25 10:56:00,66.9,30.0,29.77,ESE,111,4.9,4.9,25,0.00,,---,0.00,VWS V14.00,2013-05-25 17:56:00,
2013-05-25 11:02:00,67.6,30.6,29.77,ESE,103,6.3,6.3,25,0.00,,---,0.00,VWS V14.00,2013-05-25 18:02:00,
2013-05-25 11:08:00,67.8,29.7,29.77,SSW,194,8.1,8.1,24,0.00,,---,0.00,VWS V14.00,2013-05-25 18:08:00,
2013-05-25 11:13:00,68.2,29.0,29.77,South,171,3.6,4.0,23,0.00,,---,0.00,VWS V14.00,2013-05-25 18:13:00,
2013-05-25 11:18:00,68.7,30.5,29.77,ESE,119,11.0,11.0,24,0.00,,---,0.00,VWS V14.00,2013-05-25 18:18:00,
2013-05-25 11:24:00,68.9,29.6,29.77,SSE,157,6.3,6.3,23,0.00,,---,0.00,VWS V14.00,2013-05-25 18:24:00,
2013-05-25 11:30:00,69.8,30.4,29.77,SSE,152,8.1,8.1,23,0.00,,---,0.00,VWS V14.00,2013-05-25 18:30:00,
2013-05-25 11:36:00,69.6,30.2,29.77,SSE,163,6.3,6.3,23,0.00,,---,0.00,VWS V14.00,2013-05-25 18:36:00,
2013-05-25 11:41:00,69.8,29.3,29.77,South,187,4.0,4.9,22,0.00,,---,0.00,VWS V14.00,2013-05-25 18:41:00,
2013-05-25 11:47:00,70.2,29.6,29.77,SSE,161,0.0,0.0,22,0.00,,---,0.00,VWS V14.00,2013-05-25 18:47:00,
2013-05-25 11:52:00,70.9,30.2,29.77,SE,135,5.4,8.7,22,0.00,,---,0.00,VWS V14.00,2013-05-25 18:52:00,
2013-05-25 11:57:00,71.2,30.5,29.77,East,98,5.4,5.4,22,0.00,,---,0.00,VWS V14.00,2013-05-25 18:57:00,
2013-05-25 12:03:00,71.4,30.6,29.77,SSE,168,3.6,3.6,22,0.00,,---,0.00,VWS V14.00,2013-05-25 19:03:00,
2013-05-25 12:09:00,71.6,29.6,29.77,South,173,5.8,5.8,21,0.00,,---,0.00,VWS V14.00,2013-05-25 19:09:00,
2013-05-25 12:14:00,71.6,29.6,29.77,WSW,254,7.6,7.6,21,0.00,,---,0.00,VWS V14.00,2013-05-25 19:14:00,
2013-05-25 12:19:00,71.6,29.6,29.77,SSW,205,6.3,6.3,21,0.00,,---,0.00,VWS V14.00,2013-05-25 19:19:00,
2013-05-25 12:24:00,71.6,29.6,29.77,SE,143,3.6,3.6,21,0.00,,---,0.00,VWS V14.00,2013-05-25 19:24:00,
2013-05-25 12:30:00,72.7,30.5,29.77,North,353,2.2,4.0,21,0.00,,---,0.00,VWS V14.00,2013-05-25 19:30:00,
2013-05-25 12:36:00,73.0,30.8,29.77,West,268,5.8,5.8,21,0.00,,---,0.00,VWS V14.00,2013-05-25 19:36:00,
2013-05-25 12:41:00,73.2,31.0,29.77,West,259,4.9,5.8,21,0.00,,---,0.00,VWS V14.00,2013-05-25 19:41:00,
2013-05-25 12:47:00,73.2,28.5,29.77,WSW,254,8.3,8.3,19,0.00,,---,0.00,VWS V14.00,2013-05-25 19:47:00,
2013-05-25 12:52:00,73.2,28.5,29.77,West,273,2.7,6.3,19,0.00,,---,0.00,VWS V14.00,2013-05-25 19:52:00,
2013-05-25 12:57:00,73.6,27.5,29.77,SSW,202,5.4,5.4,18,0.00,,---,0.00,VWS V14.00,2013-05-25 19:57:00,
2013-05-25 13:03:00,74.1,27.9,29.77,WSW,247,4.0,4.0,18,0.00,,---,0.00,VWS V14.00,2013-05-25 20:03:00,
2013-05-25 13:08:00,73.9,27.8,29.77,SSW,203,3.6,3.6,18,0.00,,---,0.00,VWS V14.00,2013-05-25 20:08:00,
2013-05-25 13:14:00,74.7,28.4,29.77,South,191,3.6,6.3,18,0.00,,---,0.00,VWS V14.00,2013-05-25 20:14:00,
2013-05-25 13:20:00,74.3,25.2,29.77,SSW,192,4.0,4.0,16,0.00,,---,0.00,VWS V14.00,2013-05-25 20:20:00,
2013-05-25 13:25:00,74.5,28.2,29.77,SSW,198,7.6,7.6,18,0.00,,---,0.00,VWS V14.00,2013-05-25 20:25:00,
2013-05-25 13:30:00,75.2,24.4,29.77,South,173,3.6,3.6,15,0.00,,---,0.00,VWS V14.00,2013-05-25 20:30:00,
2013-05-25 13:36:00,75.2,24.4,29.77,WSW,238,3.1,5.4,15,0.00,,---,0.00,VWS V14.00,2013-05-25 20:36:00,
2013-05-25 13:41:00,75.2,24.4,29.77,SW,234,3.1,3.1,15,0.00,,---,0.00,VWS V14.00,2013-05-25 20:41:00,
2013-05-25 13:47:00,76.1,25.1,29.77,SSW,200,3.1,4.9,15,0.00,,---,0.00,VWS V14.00,2013-05-25 20:47:00,
2013-05-25 13:52:00,76.1,25.1,29.77,SW,223,3.1,3.1,15,0.00,,---,0.00,VWS V14.00,2013-05-25 20:52:00,
2013-05-25 13:57:00,76.1,25.1,29.77,SSW,195,2.7,5.8,15,0.00,,---,0.00,VWS V14.00,2013-05-25 20:57:00,
2013-05-25 14:02:00,76.1,25.1,29.74,WNW,292,3.6,3.6,15,0.00,,---,0.00,VWS V14.00,2013-05-25 21:02:00,
2013-05-25 14:08:00,76.5,25.4,29.74,West,276,5.4,5.8,15,0.00,,---,0.00,VWS V14.00,2013-05-25 21:08:00,
2013-05-25 14:14:00,76.8,25.7,29.74,WSW,237,4.9,4.9,15,0.00,,---,0.00,VWS V14.00,2013-05-25 21:14:00,
2013-05-25 14:19:00,77.0,25.9,29.74,South,177,3.1,3.1,15,0.00,,---,0.00,VWS V14.00,2013-05-25 21:19:00,
2013-05-25 14:24:00,77.5,26.3,29.74,South,186,4.0,4.0,15,0.00,,---,0.00,VWS V14.00,2013-05-25 21:24:00,
2013-05-25 14:30:00,77.5,26.3,29.74,SW,218,4.0,4.0,15,0.00,,---,0.00,VWS V14.00,2013-05-25 21:30:00,
2013-05-25 14:36:00,77.5,26.3,29.74,SE,124,5.8,5.8,15,0.00,,---,0.00,VWS V14.00,2013-05-25 21:36:00,
2013-05-25 14:41:00,77.4,26.1,29.74,SW,236,3.6,3.6,15,0.00,,---,0.00,VWS V14.00,2013-05-25 21:41:00,
2013-05-25 14:46:00,77.5,26.3,29.74,South,189,3.6,3.6,15,0.00,,---,0.00,VWS V14.00,2013-05-25 21:46:00,
2013-05-25 14:51:00,77.7,26.4,29.74,ESE,102,3.1,3.1,15,0.00,,---,0.00,VWS V14.00,2013-05-25 21:51:00,
2013-05-25 14:57:00,77.9,26.6,29.74,South,183,6.3,6.3,15,0.00,,---,0.00,VWS V14.00,2013-05-25 21:57:00,
2013-05-25 15:02:00,77.9,26.6,29.74,South,186,3.6,3.6,15,0.00,,---,0.00,VWS V14.00,2013-05-25 22:02:00,
2013-05-25 15:08:00,78.6,23.7,29.74,South,185,3.1,6.3,13,0.00,,---,0.00,VWS V14.00,2013-05-25 22:08:00,
2013-05-25 15:14:00,78.1,23.3,29.74,WSW,246,3.1,3.1,13,0.00,,---,0.00,VWS V14.00,2013-05-25 22:14:00,
2013-05-25 15:19:00,78.3,23.4,29.74,SW,236,5.4,5.4,13,0.00,,---,0.00,VWS V14.00,2013-05-25 22:19:00,
2013-05-25 15:25:00,78.3,23.4,29.74,SSW,211,4.9,4.9,13,0.00,,---,0.00,VWS V14.00,2013-05-25 22:25:00,
2013-05-25 15:30:00,78.3,23.4,29.74,WSW,250,0.0,0.0,13,0.00,,---,0.00,VWS V14.00,2013-05-25 22:30:00,
2013-05-25 15:35:00,78.4,23.6,29.74,South,187,4.0,4.0,13,0.00,,---,0.00,VWS V14.00,2013-05-25 22:35:00,
2013-05-25 15:40:00,78.8,22.0,29.74,SSE,162,4.9,4.9,12,0.00,,---,0.00,VWS V14.00,2013-05-25 22:40:00,
2013-05-25 15:46:00,78.8,22.0,29.74,West,271,3.1,3.1,12,0.00,,---,0.00,VWS V14.00,2013-05-25 22:46:00,
2013-05-25 15:51:00,78.6,23.7,29.74,SSE,150,7.6,7.6,13,0.00,,---,0.00,VWS V14.00,2013-05-25 22:51:00,
2013-05-25 15:56:00,78.8,22.0,29.74,WSW,239,4.9,7.6,12,0.00,,---,0.00,VWS V14.00,2013-05-25 22:56:00,
2013-05-25 16:02:00,78.4,23.6,29.74,West,273,6.3,6.3,13,0.00,,---,0.00,VWS V14.00,2013-05-25 23:02:00,
2013-05-25 16:07:00,78.3,23.4,29.74,SSW,211,3.6,3.6,13,0.00,,---,0.00,VWS V14.00,2013-05-25 23:07:00,
2013-05-25 16:12:00,78.3,23.4,29.74,WSW,249,4.0,5.4,13,0.00,,---,0.00,VWS V14.00,2013-05-25 23:12:00,
2013-05-25 16:17:00,79.0,22.1,29.74,SW,224,4.0,4.0,12,0.00,,---,0.00,VWS V14.00,2013-05-25 23:17:00,
2013-05-25 16:23:00,78.6,23.7,29.74,WSW,247,6.3,6.3,13,0.00,,---,0.00,VWS V14.00,2013-05-25 23:23:00,
2013-05-25 16:28:00,78.6,23.7,29.74,SSW,208,4.0,4.0,13,0.00,,---,0.00,VWS V14.00,2013-05-25 23:28:00,
2013-05-25 16:33:00,78.1,23.3,29.71,SSW,202,5.4,8.7,13,0.00,,---,0.00,VWS V14.00,2013-05-25 23:33:00,
2013-05-25 16:38:00,77.9,23.1,29.71,SW,219,5.8,8.1,13,0.00,,---,0.00,VWS V14.00,2013-05-25 23:38:00,
2013-05-25 16:44:00,77.5,22.9,29.71,South,189,8.1,8.1,13,0.00,,---,0.00,VWS V14.00,2013-05-25 23:44:00,
2013-05-25 16:49:00,77.4,22.7,29.74,WSW,251,4.0,4.0,13,0.00,,---,0.00,VWS V14.00,2013-05-25 23:49:00,
2013-05-25 16:54:00,77.4,22.7,29.74,SW,221,3.6,3.6,13,0.00,,---,0.00,VWS V14.00,2013-05-25 23:54:00,
2013-05-25 16:59:00,77.2,22.6,29.74,West,269,5.8,7.6,13,0.00,,---,0.00,VWS V14.00,2013-05-25 23:59:00,
2013-05-25 17:04:00,76.8,22.3,29.71,South,181,2.7,3.1,13,0.00,,---,0.00,VWS V14.00,2013-05-26 00:04:00,
2013-05-25 17:10:00,76.8,22.3,29.71,SW,222,3.1,4.0,13,0.00,,---,0.00,VWS V14.00,2013-05-26 00:10:00,
2013-05-25 17:15:00,76.6,22.1,29.71,WSW,248,4.0,5.8,13,0.00,,---,0.00,VWS V14.00,2013-05-26 00:15:00,
2013-05-25 17:21:00,76.6,22.1,29.71,SW,218,5.4,5.4,13,0.00,,---,0.00,VWS V14.00,2013-05-26 00:21:00,
2013-05-25 17:27:00,76.6,22.1,29.71,SSW,204,3.1,3.6,13,0.00,,---,0.00,VWS V14.00,2013-05-26 00:27:00,
2013-05-25 17:32:00,76.5,22.0,29.71,SW,223,6.3,8.3,13,0.00,,---,0.00,VWS V14.00,2013-05-26 00:32:00,
2013-05-25 17:37:00,76.5,22.0,29.71,West,260,3.6,3.6,13,0.00,,---,0.00,VWS V14.00,2013-05-26 00:37:00,
2013-05-25 17:43:00,76.3,21.9,29.71,SW,235,5.4,5.4,13,0.00,,---,0.00,VWS V14.00,2013-05-26 00:43:00,
2013-05-25 17:48:00,76.3,21.9,29.71,SSW,206,7.2,7.2,13,0.00,,---,0.00,VWS V14.00,2013-05-26 00:48:00,
2013-05-25 17:54:00,76.1,25.1,29.71,SW,233,5.4,7.2,15,0.00,,---,0.00,VWS V14.00,2013-05-26 00:54:00,
2013-05-25 17:59:00,75.6,24.7,29.71,SW,231,6.3,6.3,15,0.00,,---,0.00,VWS V14.00,2013-05-26 00:59:00,
2013-05-25 18:04:00,75.2,24.4,29.71,SSW,206,6.3,6.3,15,0.00,,---,0.00,VWS V14.00,2013-05-26 01:04:00,
2013-05-25 18:10:00,74.8,25.7,29.71,SSW,208,3.1,5.8,16,0.00,,---,0.00,VWS V14.00,2013-05-26 01:10:00,
2013-05-25 18:16:00,74.3,25.2,29.71,South,170,3.6,7.6,16,0.00,,---,0.00,VWS V14.00,2013-05-26 01:16:00,
2013-05-25 18:22:00,73.8,24.8,29.71,SSW,202,5.4,5.4,16,0.00,,---,0.00,VWS V14.00,2013-05-26 01:22:00,
2013-05-25 18:27:00,73.4,24.5,29.71,SSW,193,5.4,5.4,16,0.00,,---,0.00,VWS V14.00,2013-05-26 01:27:00,
2013-05-25 18:33:00,73.0,24.2,29.74,South,177,8.3,8.3,16,0.00,,---,0.00,VWS V14.00,2013-05-26 01:33:00,
2013-05-25 18:38:00,72.9,24.1,29.74,South,173,4.0,5.4,16,0.00,,---,0.00,VWS V14.00,2013-05-26 01:38:00,
2013-05-25 18:43:00,72.3,23.6,29.74,SW,232,3.1,3.1,16,0.00,,---,0.00,VWS V14.00,2013-05-26 01:43:00,
2013-05-25 18:49:00,72.0,23.4,29.74,SSE,151,6.3,6.3,16,0.00,,---,0.00,VWS V14.00,2013-05-26 01:49:00,
2013-05-25 18:55:00,71.4,24.4,29.74,WSW,251,9.6,9.6,17,0.00,,---,0.00,VWS V14.00,2013-05-26 01:55:00,
2013-05-25 19:00:00,70.9,23.9,29.74,SSW,201,8.1,8.1,17,0.00,,---,0.00,VWS V14.00,2013-05-26 02:00:00,
2013-05-25 19:05:00,70.5,23.6,29.74,South,177,3.1,4.0,17,0.00,,---,0.00,VWS V14.00,2013-05-26 02:05:00,
2013-05-25 19:10:00,70.2,23.4,29.74,SW,228,5.8,5.8,17,0.00,,---,0.00,VWS V14.00,2013-05-26 02:10:00,
2013-05-25 19:16:00,69.8,23.1,29.74,SSW,210,5.8,6.3,17,0.00,,---,0.00,VWS V14.00,2013-05-26 02:16:00,
2013-05-25 19:21:00,69.4,22.8,29.74,WSW,238,2.7,2.7,17,0.00,,---,0.00,VWS V14.00,2013-05-26 02:21:00,
2013-05-25 19:26:00,69.1,22.5,29.74,SSW,206,4.0,4.0,17,0.00,,---,0.00,VWS V14.00,2013-05-26 02:26:00,
2013-05-25 19:31:00,68.7,22.2,29.74,SSW,208,5.4,6.3,17,0.00,,---,0.00,VWS V14.00,2013-05-26 02:31:00,
2013-05-25 19:37:00,68.4,21.9,29.74,SW,232,3.6,3.6,17,0.00,,---,0.00,VWS V14.00,2013-05-26 02:37:00,
2013-05-25 19:42:00,68.0,21.6,29.74,South,187,4.0,4.0,17,0.00,,---,0.00,VWS V14.00,2013-05-26 02:42:00,
2013-05-25 19:47:00,67.6,21.3,29.74,SSE,147,4.0,4.0,17,0.00,,---,0.00,VWS V14.00,2013-05-26 02:47:00,
2013-05-25 19:52:00,67.3,24.9,29.74,SW,215,5.8,5.8,20,0.00,,---,0.00,VWS V14.00,2013-05-26 02:52:00,
2013-05-25 19:58:00,66.9,24.6,29.74,SSE,154,3.6,3.6,20,0.00,,---,0.00,VWS V14.00,2013-05-26 02:58:00,
2013-05-25 20:03:00,66.9,24.6,29.74,South,190,3.6,3.6,20,0.00,,---,0.00,VWS V14.00,2013-05-26 03:03:00,
2013-05-25 20:08:00,66.2,24.0,29.74,WSW,251,8.7,8.7,20,0.00,,---,0.00,VWS V14.00,2013-05-26 03:08:00,
2013-05-25 20:13:00,66.0,23.8,29.74,SW,217,5.8,5.8,20,0.00,,---,0.00,VWS V14.00,2013-05-26 03:13:00,
2013-05-25 20:19:00,65.8,23.7,29.74,SSW,209,4.0,4.9,20,0.00,,---,0.00,VWS V14.00,2013-05-26 03:19:00,
2013-05-25 20:25:00,65.1,26.4,29.74,SE,146,3.1,3.1,23,0.00,,---,0.00,VWS V14.00,2013-05-26 03:25:00,
2013-05-25 20:30:00,64.8,26.1,29.74,South,180,4.9,4.9,23,0.00,,---,0.00,VWS V14.00,2013-05-26 03:30:00,
2013-05-25 20:35:00,64.4,25.8,29.74,South,181,3.6,6.3,23,0.00,,---,0.00,VWS V14.00,2013-05-26 03:35:00,
2013-05-25 20:40:00,64.0,26.5,29.74,SW,227,5.4,6.3,24,0.00,,---,0.00,VWS V14.00,2013-05-26 03:40:00,
2013-05-25 20:46:00,64.0,26.5,29.74,SW,226,4.0,4.0,24,0.00,,---,0.00,VWS V14.00,2013-05-26 03:46:00,
2013-05-25 20:51:00,63.3,25.9,29.74,SSW,209,4.0,4.0,24,0.00,,---,0.00,VWS V14.00,2013-05-26 03:51:00,
2013-05-25 20:56:00,63.0,25.6,29.74,SSW,196,2.7,3.6,24,0.00,,---,0.00,VWS V14.00,2013-05-26 03:56:00,
2013-05-25 21:01:00,63.0,25.6,29.74,SSW,192,5.4,5.4,24,0.00,,---,0.00,VWS V14.00,2013-05-26 04:01:00,
2013-05-25 21:02:00,63.0,25.6,29.74,South,170,3.1,5.4,24,0.00,,---,0.00,VWS V14.00,2013-05-26 04:02:00,
2013-05-25 21:03:00,62.6,25.3,29.74,SSW,203,7.6,7.6,24,0.00,,---,0.00,VWS V14.00,2013-05-26 04:03:00,
2013-05-25 21:04:00,62.4,26.2,29.74,SSW,203,7.6,7.6,25,0.00,,---,0.00,VWS V14.00,2013-05-26 04:04:00,
2013-05-25 21:08:00,62.2,26.0,29.74,SE,145,3.1,4.0,25,0.00,,---,0.00,VWS V14.00,2013-05-26 04:08:00,
2013-05-25 21:13:00,61.9,25.7,29.74,South,172,4.0,4.0,25,0.00,,---,0.00,VWS V14.00,2013-05-26 04:13:00,
2013-05-25 21:18:00,61.7,26.5,29.74,SSE,153,6.3,6.3,26,0.00,,---,0.00,VWS V14.00,2013-05-26 04:18:00,
2013-05-25 21:24:00,61.5,27.2,29.74,SSW,204,6.3,6.3,27,0.00,,---,0.00,VWS V14.00,2013-05-26 04:24:00,
2013-05-25 21:29:00,61.5,27.2,29.74,SW,235,4.0,5.8,27,0.00,,---,0.00,VWS V14.00,2013-05-26 04:29:00,
2013-05-25 21:34:00,61.3,27.1,29.74,SSW,195,6.3,6.3,27,0.00,,---,0.00,VWS V14.00,2013-05-26 04:34:00,
2013-05-25 21:40:00,61.0,26.8,29.74,SSE,153,5.4,5.4,27,0.00,,---,0.00,VWS V14.00,2013-05-26 04:40:00,
2013-05-25 21:46:00,60.8,27.5,29.74,SSW,207,5.4,5.4,28,0.00,,---,0.00,VWS V14.00,2013-05-26 04:46:00,
2013-05-25 21:51:00,60.8,27.5,29.77,SSE,152,3.1,3.6,28,0.00,,---,0.00,VWS V14.00,2013-05-26 04:51:00,
2013-05-25 21:57:00,60.6,29.0,29.77,SE,145,3.1,3.1,30,0.00,,---,0.00,VWS V14.00,2013-05-26 04:57:00,
2013-05-25 22:02:00,60.4,28.9,29.77,South,181,3.6,4.0,30,0.00,,---,0.00,VWS V14.00,2013-05-26 05:02:00,
2013-05-25 22:07:00,60.3,29.5,29.77,SSE,153,2.7,4.9,31,0.00,,---,0.00,VWS V14.00,2013-05-26 05:07:00,
2013-05-25 22:13:00,59.9,29.2,29.77,SE,146,3.6,4.0,31,0.00,,---,0.00,VWS V14.00,2013-05-26 05:13:00,
2013-05-25 22:18:00,59.7,29.8,29.77,South,183,5.4,7.6,32,0.00,,---,0.00,VWS V14.00,2013-05-26 05:18:00,
2013-05-25 22:24:00,59.5,30.4,29.77,SSE,157,5.8,8.7,33,0.00,,---,0.00,VWS V14.00,2013-05-26 05:24:00,
2013-05-25 22:29:00,59.4,29.5,29.77,SSE,164,4.0,4.0,32,0.00,,---,0.00,VWS V14.00,2013-05-26 05:29:00,
2013-05-25 22:34:00,59.2,30.9,29.77,SE,146,3.6,4.9,34,0.00,,---,0.00,VWS V14.00,2013-05-26 05:34:00,
2013-05-25 22:40:00,59.0,30.7,29.77,SE,127,5.4,5.4,34,0.00,,---,0.00,VWS V14.00,2013-05-26 05:40:00,
2013-05-25 22:46:00,58.8,31.2,29.77,SSE,149,6.3,6.3,35,0.00,,---,0.00,VWS V14.00,2013-05-26 05:46:00,
2013-05-25 22:51:00,58.5,30.9,29.77,SE,140,5.8,5.8,35,0.00,,---,0.00,VWS V14.00,2013-05-26 05:51:00,
2013-05-25 22:56:00,58.3,30.8,29.77,SE,134,5.4,5.4,35,0.00,,---,0.00,VWS V14.00,2013-05-26 05:56:00,
2013-05-25 23:01:00,58.1,30.6,29.77,SSE,151,3.1,3.1,35,0.00,,---,0.00,VWS V14.00,2013-05-26 06:01:00,
2013-05-25 23:07:00,57.9,31.1,29.77,SE,144,3.1,3.1,36,0.00,,---,0.00,VWS V14.00,2013-05-26 06:07:00,
2013-05-25 23:12:00,57.7,31.0,29.77,ESE,120,3.1,5.8,36,0.00,,---,0.00,VWS V14.00,2013-05-26 06:12:00,
2013-05-25 23:17:00,57.6,30.8,29.77,SE,138,3.1,3.1,36,0.00,,---,0.00,VWS V14.00,2013-05-26 06:17:00,
2013-05-25 23:23:00,57.6,31.5,29.77,SE,126,6.3,6.3,37,0.00,,---,0.00,VWS V14.00,2013-05-26 06:23:00,
2013-05-25 23:28:00,57.4,30.7,29.77,SSE,155,5.8,5.8,36,0.00,,---,0.00,VWS V14.00,2013-05-26 06:28:00,
2013-05-25 23:33:00,57.2,30.5,29.77,South,169,5.4,5.4,36,0.00,,---,0.00,VWS V14.00,2013-05-26 06:33:00,
2013-05-25 23:38:00,57.2,30.5,29.77,East,98,5.4,5.4,36,0.00,,---,0.00,VWS V14.00,2013-05-26 06:38:00,
2013-05-25 23:44:00,57.0,31.0,29.77,SE,134,4.9,4.9,37,0.00,,---,0.00,VWS V14.00,2013-05-26 06:44:00,
2013-05-25 23:49:00,56.8,30.9,29.77,SSE,166,7.2,7.2,37,0.00,,---,0.00,VWS V14.00,2013-05-26 06:49:00,
2013-05-25 23:55:00,56.8,30.9,29.77,ESE,110,5.4,5.4,37,0.00,,---,0.00,VWS V14.00,2013-05-26 06:55:00,